Location: Dalton
(34.7700°N, 84.9700°W)
Time: 10:46:33
(UTC-04:00)

OTV 5 (USA 277) - Pass Details

Date: 11 October 2017
Orbit: 404 x 417 km, 43.0° (Epoch: 07 September)

Event Time Altitude Azimuth Distance (km) Brightness Sun altitude
Rises 20:26:31 0° 264° (W) 2,348 ? -16.5°
Reaches altitude 10° 20:28:45 10° 274° (W) 1,487 ? -17.0°
Maximum altitude 20:31:51 34° 341° (NNW) 708 ? -17.6°
Enters shadow 20:33:03 25° 23° (NNE) 871 ? -17.9°
